This demonstration page uses our WeatherBlox Daily Observations layout. Learn more.

Left ArrowRight Arrow

44.31136, -96.79839

Hourly Observations for October 1, 2021

Temp ( °F °C ) Dew Point ( °F °C ) Humidity (%) Winds ( mph kmh ) Pressure ( in mb ) Visibility ( mi km ) Precip ( " mm )
12:56 am 00:56 Cloudy 63 17.2 62 16.7 97 97 N 3 6 30.11 1020 7 11 0.00 0.00
1:56 am 01:56 Cloudy 64 17.8 62 16.7 93 93 Calm 30.10 1019 10 16 0.00 0.00
2:56 am 02:56 Cloudy 65 18.3 62 16.7 90 90 ENE 5 7 30.10 1019 10 16 0.00 0.00
3:46 am 03:46 Cloudy 64 18 63 17 94 94 SE 6 9 30.04 1017 10 16 0.00 0.00
3:56 am 03:56 Cloudy 64 17.8 62 16.7 93 93 ESE 7 11 30.09 1019 10 16 0.00 0.00
4:07 am 04:07 Cloudy 64 18 63 17 94 94 ESE 6 9 30.03 1017 10 16 0.00 0.00
4:56 am 04:56 Mostly Cloudy 64 17.8 62 16.7 93 93 E 3 6 30.07 1018 10 16 0.00 0.00
5:11 am 05:11 Mostly Cloudy 64 18 63 17 94 94 ENE 3 6 30.01 1016 10 16 0.00 0.00
5:41 am 05:41 Mostly Cloudy 63 17 63 17 100 100 Calm 30.02 1016 10 16 0.00 0.00
5:54 am 05:54 Mostly Cloudy 63 17 61 16 94 94 N 3 6 30.03 1017 9 14 0.00 0.00
5:55 am 05:55 Mostly Cloudy 62 16.7 61 16.1 96 96 N 5 7 30.08 1019 9 14 0.00 0.00
6:06 am 06:06 Mostly Cloudy 61 16 61 16 100 100 Calm 30.03 1017 8 13 0.00 0.00
6:56 am 06:56 Mostly Cloudy with Mist and Fog 61 16.1 61 16.1 100 100 Calm 30.08 1019 6 10 0.00 0.00
7:20 am 07:20 Mostly Cloudy with Mist and Fog 61 16 61 16 100 100 Calm 30.03 1017 2 2 0.00 0.00
7:30 am 07:30 Mostly Cloudy with Mist and Fog 61 16 61 16 100 100 Calm 30.03 1017 1 1 0.00 0.00
7:34 am 07:34 Mostly Cloudy with Mist and Fog 61 16 61 16 100 100 W 3 6 30.03 1017 1 2 0.00 0.00
7:40 am 07:40 Mostly Cloudy with Mist and Fog 61 16 61 16 100 100 Calm 30.03 1017 4 6 0.00 0.00
7:44 am 07:44 Mostly Cloudy with Mist and Fog 61 16 61 16 100 100 Calm 30.03 1017 1 2 0.00 0.00
7:49 am 07:49 Mostly Cloudy with Fog 61 16 59 15 94 94 Calm 30.03 1017 1 1 0.00 0.00
7:56 am 07:56 Mostly Cloudy with Fog 60 15.6 59 15 96 96 Calm 30.09 1019 0 0 0.00 0.00
8:02 am 08:02 Mostly Cloudy with Mist and Fog 61 16 59 15 94 94 Calm 30.03 1017 1 2 0.00 0.00
8:10 am 08:10 Cloudy with Mist and Fog 61 16 61 16 100 100 Calm 30.03 1017 3 4 0.00 0.00
8:14 am 08:14 Cloudy with Nearby Thunderstorms 61 16 61 16 100 100 Calm 30.03 1017 4 6 0.00 0.00
8:24 am 08:24 Cloudy with Nearby Thunderstorms 61 16 61 16 100 100 Calm 30.04 1017 2 3 0.00 0.00
8:28 am 08:28 Cloudy with Nearby Thunderstorms 61 16 61 16 100 100 Calm 30.03 1017 3 4 0.00 0.00
8:48 am 08:48 Cloudy with Strong Thunderstorms 63 17 61 16 94 94 Calm 30.04 1017 1 2 0.05 1.27
8:56 am 08:56 Cloudy with Nearby Thunderstorms 62 16.7 62 16.7 100 100 Calm 30.09 1019 1 2 0.08 2.03
8:59 am 08:59 Mostly Cloudy with Rain 63 17 63 17 100 100 Calm 30.03 1017 1 1 0.01 0.25
9:09 am 09:09 Cloudy with Rain 63 17 63 17 100 100 Calm 30.04 1017 1 2 0.04 1.02
9:17 am 09:17 Cloudy with Heavy Rain 63 17 63 17 100 100 Calm 30.04 1017 1 1 0.08 2.03
9:21 am 09:21 Cloudy with Heavy Rain 63 17 63 17 100 100 Calm 30.04 1017 1 2 0.10 2.54
9:28 am 09:28 Cloudy with Rain 63 17 63 17 100 100 Calm 30.04 1017 1 2 0.13 3.30
9:46 am 09:46 Cloudy with Rain 63 17 63 17 100 100 ENE 6 9 30.04 1017 3 4 0.17 4.32
9:56 am 09:56 Cloudy with Rain 63 17.2 63 17.2 100 100 ENE 6 9 30.10 1019 3 4 0.20 5.08
10:04 am 10:04 Cloudy with Light Rain 63 17 63 17 100 100 E 6 9 30.04 1017 4 6 0.01 0.25
10:15 am 10:15 Cloudy with Light Rain 63 17 63 17 100 100 Calm 30.04 1017 8 13 0.01 0.25
10:24 am 10:24 Cloudy with Rain 63 17 63 17 100 100 Calm 30.05 1018 4 6 0.02 0.51
10:34 am 10:34 Cloudy with Rain 63 17 63 17 100 100 NE 3 6 30.04 1017 2 3 0.05 1.27
10:40 am 10:40 Cloudy with Rain 64 18 63 17 94 94 ENE 5 7 30.03 1017 3 5 0.08 2.03
10:47 am 10:47 Cloudy with Light Rain 64 18 63 17 94 94 ENE 6 9 30.03 1017 6 10 0.08 2.03
10:56 am 10:56 Cloudy with Light Rain 64 17.8 63 17.2 96 96 ENE 6 9 30.10 1019 10 16 0.08 2.03
11:49 am 11:49 Cloudy 64 18 63 17 94 94 E 5 7 30.03 1017 10 16 0.02 0.51
11:56 am 11:56 Cloudy 65 18.3 63 17.2 93 93 E 6 9 30.09 1019 10 16 0.02 0.51
12:56 pm 12:56 Cloudy 67 19.4 64 17.8 91 91 E 6 9 30.08 1019 10 16 0.00 0.00
1:05 pm 13:05 Cloudy 66 19 64 18 94 94 ESE 6 9 30.00 1016 10 16 0.00 0.00
1:32 pm 13:32 Cloudy with Light Rain 66 19 64 18 94 94 SE 7 11 30.00 1016 9 14 0.00 0.00
1:56 pm 13:56 Cloudy 67 19.4 64 17.8 91 91 ESE 5 7 30.06 1018 10 16 0.00 0.00
2:56 pm 14:56 Cloudy with Mist and Fog 67 19.4 64 17.8 91 91 Calm 30.05 1018 6 10 0.00 0.00
3:13 pm 15:13 Cloudy 68 20 64 18 88 88 Calm 29.97 1015 7 11 0.00 0.00
3:47 pm 15:47 Cloudy with Light Rain 70 21 64 18 83 83 Calm 29.95 1014 7 11 0.00 0.00
3:56 pm 15:56 Cloudy with Light Rain 69 20.6 65 18.3 87 87 SE 5 7 30.03 1017 10 16 0.00 0.00
4:56 pm 16:56 Mostly Cloudy 71 21.7 64 17.8 79 79 ESE 7 11 30.02 1017 10 16 0.00 0.00
5:56 pm 17:56 Mostly Sunny 69 20.6 63 17.2 81 81 ESE 6 9 30.01 1016 10 16 0.00 0.00
6:56 pm 18:56 Mostly Cloudy 67 19.4 64 17.8 91 91 E 3 6 30.02 1017 10 16 0.00 0.00
7:56 pm 19:56 Cloudy 66 18.9 63 17.2 90 90 ESE 6 9 30.03 1017 10 16 0.00 0.00
8:56 pm 20:56 Cloudy 66 18.9 63 17.2 90 90 E 3 6 30.02 1017 10 16 0.00 0.00
9:43 pm 21:43 Cloudy 64 18 63 17 94 94 ENE 3 6 29.96 1015 10 16 0.00 0.00
9:56 pm 21:56 Cloudy 65 18.3 63 17.2 93 93 NNE 5 7 30.03 1017 10 16 0.00 0.00
10:56 pm 22:56 Cloudy 65 18.3 63 17.2 93 93 NNE 5 7 30.02 1017 10 16 0.00 0.00
11:05 pm 23:05 Cloudy 64 18 63 17 94 94 Calm 29.96 1015 10 16 0.00 0.00
11:23 pm 23:23 Cloudy 64 18 63 17 94 94 NNW 5 7 29.96 1015 9 14 0.00 0.00
11:32 pm 23:32 Cloudy 64 18 63 17 94 94 N 8 13 29.96 1015 8 13 0.00 0.00
11:42 pm 23:42 Cloudy with Mist and Fog 64 18 63 17 94 94 NNE 7 11 29.96 1015 3 4 0.00 0.00
11:56 pm 23:56 Cloudy with Mist and Fog 64 17.8 62 16.7 93 93 NNE 7 11 30.02 1017 6 10 0.00 0.00

Powered by AerisWeather